CAPE
0 0 0 0 0 0 0 0 0 0 0 0 0 0 1 0 0 0 0 41 16 2 0 0 0 0 0 0 0 0 0 0 0 0 0 0 0 0 0 0 0 0 0 0
0 0 0 0 0 0 0 0 0 0 0 0 0 0 0 0 0 0 0 0 55 37 0 0 0 0 0 0 0 0 0 0 0 0 0 0 0 0 0 0 0 0 0 0
10 0 0 0 0 0 0 0 0 0 0 0 0 0 9 7 6 1 0 0 12 66 15 1 0 0 0 0 0 0 0 0 0 0 0 0 0 0 0 0 0 0 0 0
0 6 0 0 0 1 1 0 0 0 0 0 1 21 16 6 14 35 74 25 1 5 9 0 0 0 0 0 0 0 0 0 0 0 0 0 0 0 0 0 0 0 0 0
3 0 0 0 0 0 6 0 0 0 2 0 0 8 3 0 0 0 17 57 18 15 9 4 0 0 0 0 0 0 0 0 0 0 0 0 0 0 0 0 0 0 0 0
2 2 0 2 9 7 0 0 2 6 0 74 45 0 0 0 0 0 0 0 0 0 0 0 0 0 0 0 0 0 0 0 0 0 0 0 0 0 0 0 0 0 0 0
0 1 0 0 1 14 0 0 4 32 55 28 5 0 0 11 0 0 0 15 0 0 0 0 0 0 0 0 0 0 0 0 0 0 0 0 0 0 0 0 0 0 0 0
6 15 0 0 0 0 0 0 0 13 6 0 0 2 0 0 0 1 1 0 0 0 0 0 0 0 0 0 0 0 0 0 0 0 0 0 0 0 0 0 0 0 0 0
15 10 30 0 0 0 0 0 36 41 45 0 0 0 0 0 1 0 4 0 0 0 0 0 0 0 0 0 0 0 0 0 0 0 0 0 0 0 0 0 0 0 0 0
0 0 5 10 0 1 0 0 20 1 24 8 0 0 0 0 1 0 0 0 0 0 0 0 0 0 0 0 0 0 0 0 0 0 0 0 0 0 0 0 0 0 0 0
0 0 3 0 0 0 0 0 0 3 15 15 5 5 7 3 20 9 0 0 0 0 0 0 0 0 0 0 0 0 0 0 0 0 0 0 0 0 0 0 0 0 0 0
0 0 0 0 0 0 0 0 3 5 3 2 0 1 14 4 1 0 0 0 0 0 0 0 0 0 0 0 0 0 0 0 0 0 0 0 0 0 0 0 0 0 0 0
0 0 0 0 0 0 0 0 0 0 0 0 0 0 4 0 0 0 0 0 0 0 0 0 0 0 0 0 0 0 0 0 0 0 0 0 0 0 0 0 0 0 0 0
5 3 0 0 0 0 0 0 0 0 0 0 0 0 0 0 1 5 10 0 0 0 0 0 0 0 0 0 0 0 0 0 0 0 0 0 0 0 0 0 0 0 0 0
0 0 0 0 7 8 0 0 0 0 0 2 0 0 0 0 0 2 0 0 0 0 0 0 0 0 0 0 0 0 0 0 0 0 0 0 0 0 0 0 0 0 0 0
0 0 0 4 0 29 0 0 0 0 0 2 6 0 0 0 0 0 0 0 0 0 0 0 0 0 0 0 0 0 0 0 0 0 0 0 0 0 0 0 0 0 0 0
1 0 5 8 8 13 17 13 28 23 22 13 16 16 1 0 0 0 0 0 0 0 0 0 0 0 0 0 0 0 0 0 0 0 0 0 0 0 0 0 0 0 0 0
2 2 9 0 0 5 1 0 0 1 1 1 4 2 1 0 0 0 0 0 0 0 0 0 0 0 0 0 0 0 0 0 0 0 0 0 0 0 0 0 0 0 0 0
0 0 0 0 0 1 0 0 0 0 0 0 0 0 0 0 0 0 0 0 0 0 0 0 0 0 0 0 0 0 0 0 0 0 0 0 0 0 0 0 0 0 0 0
0 0 0 0 0 0 0 0 0 0 0 0 0 0 0 0 0 0 0 0 0 0 0 0 0 0 0 0 0 0 0 0 0 0 0 0 0 0 0 0 0 0 0 0
0 0 0 0 0 0 0 0 0 0 0 0 0 0 0 0 0 0 0 0 0 0 0 0 0 0 0 0 0 0 0 0 0 0 0 0 0 0 0 0 0 0 0 0
0 0 0 0 0 0 0 0 0 0 0 0 0 0 0 1 1 0 0 0 0 0 0 0 0 0 0 0 0 0 0 0 0 0 0 0 0 0 0 0 0 0 0 0
0 0 0 0 0 0 0 0 0 0 0 0 0 0 0 1 0 0 0 0 0 0 0 0 0 0 0 0 0 0 0 0 0 0 0 0 0 0 0 0 0 0 0 0
1 0 0 0 0 0 0 0 0 0 0 0 0 0 0 0 0 0 0 0 0 0 0 0 0 0 0 0 0 0 0 0 0 0 0 0 0 0 0 0 0 0 0 0
0 0 0 0 0 0 0 0 0 0 0 0 0 0 0 0 0 0 0 0 0 0 0 0 0 0 0 0 0 0 0 0 0 0 0 0 0 0 0 0 0 0 0 0
0 0 0 0 0 0 0 0 0 0 0 0 0 0 0 0 0 0 0 0 0 0 0 0 0 0 0 0 0 0 0 0 0 0 0 0 0 0 0 0 0 0 0 0
0 0 0 0 0 0 0 0 0 0 0 0 0 0 0 0 0 0 0 0 0 0 0 0 0 0 0 0 0 0 0 0 0 0 0 0 0 0 0 0 0 0 0 0
CIN
-0 -0 -0 -0 -0 -0 -0 -0 -0 -0 -0 -0 -0 -0 -10 -0 -0 -0 -0 -40 -61 -40 -0 -0 -0 -0 -0 -0 -0 -0 -0 -0 -0 -0 -0 -0 -0 -0 -0 -0 -0 -0 -0 -0
-0 -0 -0 -0 -0 -0 -0 -0 -0 -0 -0 -0 -0 -0 -0 -0 -0 -0 -0 -6 -71 -111 -0 -0 -0 -0 -0 -0 -0 -0 -0 -0 -0 -0 -0 -0 -0 -0 -0 -0 -0 -0 -0 -0
-25 -0 -0 -0 -0 -0 -0 -0 -0 -0 -0 -0 -0 -0 -27 -35 -44 -21 -0 -0 -54 -87 -175 -60 -0 -0 -0 -0 -0 -0 -0 -0 -0 -0 -0 -0 -0 -0 -0 -0 -0 -0 -0 -0
-0 -26 -0 -0 -15 -11 -35 -0 -0 -0 -0 -0 -8 -91 -111 -177 -161 -124 -104 -111 -32 -52 -147 -0 -0 -0 -0 -0 -0 -0 -0 -0 -0 -0 -0 -0 -0 -0 -0 -0 -0 -0 -0 -0
-0 -2 -0 -0 -0 -1 -3 -0 -0 -0 -12 -16 -15 -116 -100 -0 -0 -0 -147 -135 -133 -134 -146 -234 -0 -0 -0 -0 -0 -0 -0 -0 -0 -0 -0 -0 -0 -0 -0 -0 -0 -0 -0 -0
-1 -3 -0 -1 -23 -15 -9 -0 -14 -64 -0 -81 -145 -9 -0 -0 -0 -0 -0 -0 -0 -0 -10 -0 -0 -0 -0 -0 -0 -0 -0 -0 -0 -0 -0 -0 -0 -0 -0 -0 -0 -0 -0 -0
-0 -1 -0 -0 -5 -41 -0 -0 -120 -64 -39 -118 -92 -99 -124 -117 -15 -18 -0 -2 -0 -0 -0 -0 -0 -0 -0 -0 -0 -0 -0 -0 -0 -0 -0 -0 -0 -0 -0 -0 -0 -0 -0 -0
-23 -22 -0 -0 -0 -0 -0 -0 -0 -24 -73 -0 -0 -122 -0 -0 -0 -19 -41 -0 -0 -0 -0 -0 -0 -0 -0 -0 -0 -0 -0 -0 -0 -0 -0 -0 -0 -0 -0 -0 -0 -0 -0 -0
-18 -17 -37 -0 -0 -0 -0 -0 -26 -23 -40 -0 -0 -0 -0 -0 -10 -0 -27 -0 -0 -0 -0 -0 -0 -0 -0 -0 -0 -0 -0 -0 -0 -0 -0 -0 -0 -0 -0 -0 -0 -0 -0 -0
-0 -0 -9 -35 -2 -25 -0 -0 -16 -8 -29 -35 -0 -0 -0 -0 -19 -0 -0 -0 -0 -0 -0 -0 -0 -0 -0 -0 -0 -0 -0 -0 -0 -0 -0 -0 -0 -0 -0 -0 -0 -0 -0 -0
-0 -0 -12 -26 -0 -0 -0 -0 -2 -12 -22 -25 -40 -46 -53 -31 -61 -53 -0 -0 -0 -0 -0 -0 -0 -0 -0 -0 -0 -0 -0 -0 -0 -0 -0 -0 -0 -0 -0 -0 -0 -0 -0 -0
-0 -1 -0 -0 -6 -0 -0 -0 -4 -12 -8 -11 -0 -48 -42 -67 -22 -0 -0 -0 -0 -0 -0 -0 -0 -0 -0 -0 -0 -0 -0 -0 -0 -0 -0 -0 -0 -0 -0 -0 -0 -0 -0 -0
-0 -0 -0 -0 -0 -0 -0 -0 -0 -0 -0 -0 -0 -0 -67 -0 -0 -0 -0 -0 -0 -0 -0 -0 -0 -0 -0 -0 -0 -0 -0 -0 -0 -0 -0 -0 -0 -0 -0 -0 -0 -0 -0 -0
-30 -33 -0 -0 -0 -0 -0 -0 -0 -0 -0 -0 -0 -0 -0 -0 -39 -0 -0 -0 -0 -0 -0 -0 -0 -0 -0 -0 -0 -0 -0 -0 -0 -0 -0 -0 -0 -0 -0 -0 -0 -0 -0 -0
-0 -0 -0 -0 -80 -12 -0 -0 -0 -0 -0 -2 -0 -13 -0 -26 -0 -0 -2 -0 -0 -0 -0 -0 -0 -0 -0 -0 -0 -0 -0 -0 -0 -0 -0 -0 -0 -0 -0 -0 -0 -0 -0 -0
-0 -0 -0 -7 -0 -9 -17 -0 -0 -0 -0 -4 -22 -33 -0 -0 -0 -0 -0 -0 -0 -0 -0 -0 -0 -0 -0 -0 -0 -0 -0 -0 -0 -0 -0 -0 -0 -0 -0 -0 -0 -0 -0 -0
-0 -0 -22 -35 -29 -13 -7 -11 -20 -21 -18 -19 -12 -39 -58 -0 -0 -0 -0 -0 -0 -0 -0 -0 -0 -0 -0 -0 -0 -0 -0 -0 -0 -0 -0 -0 -0 -0 -0 -0 -0 -0 -0 -0
-0 -0 -1 -0 -2 -26 -22 -0 -0 -72 -32 -60 -30 -9 -51 -0 -0 -0 -0 -0 -0 -0 -0 -0 -0 -0 -0 -0 -0 -0 -0 -0 -0 -0 -0 -0 -0 -0 -0 -0 -0 -0 -0 -0
-0 -0 -0 -10 -0 -9 -0 -0 -0 -0 -0 -0 -0 -0 -0 -0 -0 -0 -0 -0 -0 -0 -0 -0 -0 -0 -0 -0 -0 -0 -0 -0 -0 -0 -0 -0 -0 -0 -0 -0 -0 -0 -0 -0
-0 -0 -0 -0 -0 -0 -0 -0 -0 -0 -0 -0 -0 -0 -0 -0 -0 -0 -0 -0 -0 -0 -0 -0 -0 -0 -0 -0 -0 -0 -0 -0 -0 -0 -0 -0 -0 -0 -0 -0 -0 -0 -0 -0
-0 -0 -0 -0 -0 -0 -0 -0 -0 -0 -0 -0 -0 -0 -0 -0 -0 -0 -0 -0 -0 -0 -0 -0 -0 -0 -0 -0 -0 -0 -0 -0 -0 -0 -0 -0 -0 -0 -0 -0 -0 -0 -0 -0
-0 -0 -0 -0 -0 -0 -0 -0 -0 -0 -0 -0 -0 -0 -0 -0 -0 -0 -0 -0 -0 -0 -0 -0 -0 -0 -0 -0 -0 -0 -0 -0 -0 -0 -0 -0 -0 -0 -0 -0 -0 -0 -0 -0
-0 -0 -0 -0 -0 -0 -0 -0 -0 -0 -0 -0 -0 -0 -0 -0 -0 -0 -0 -0 -0 -0 -0 -0 -0 -0 -0 -0 -0 -0 -0 -0 -0 -0 -0 -0 -0 -0 -0 -0 -0 -0 -0 -0
-0 -0 -0 -0 -0 -0 -0 -0 -0 -0 -0 -0 -0 -0 -0 -0 -0 -0 -0 -0 -0 -0 -0 -0 -0 -0 -0 -0 -0 -0 -0 -0 -0 -0 -0 -0 -0 -0 -0 -0 -0 -0 -0 -0
-0 -0 -0 -0 -0 -2 -0 -0 -0 -0 -0 -0 -0 -0 -0 -0 -0 -0 -0 -0 -0 -0 -0 -0 -0 -0 -0 -0 -0 -0 -0 -0 -0 -0 -0 -0 -0 -0 -0 -0 -0 -0 -0 -0
-1 -0 -0 -0 -0 -0 -0 -0 -0 -0 -0 -0 -0 -0 -0 -0 -0 -0 -0 -0 -0 -0 -0 -0 -0 -0 -0 -0 -0 -0 -0 -0 -0 -0 -0 -0 -0 -0 -0 -0 -0 -0 -0 -0
-3 -0 -0 -0 -0 -0 -0 -0 -0 -0 -0 -0 -0 -0 -0 -0 -0 -0 -0 -0 -0 -0 -0 -0 -0 -0 -0 -0 -0 -0 -0 -0 -0 -0 -0 -0 -0 -0 -0 -0 -0 -0 -0 -0
Wind_Speed
35 35 37 39 41 43 44 41 40 45 40 51 43 35 22 28 28 29 28 18 15 16 14 12 11 10 9 9 9 9 10 10 8 7 5 5 5 6 7 8 7 6 6 8
36 34 32 37 34 36 41 42 40 39 44 44 45 45 45 40 35 34 31 17 14 13 12 12 12 11 11 10 10 11 11 12 10 9 8 6 5 6 6 6 4 3 4 6
30 22 22 30 21 21 19 20 27 31 37 35 39 37 33 30 26 27 26 17 10 10 12 12 12 11 11 10 9 9 10 11 11 10 9 8 6 5 4 2 1 2 3 4
32 30 32 23 20 14 13 10 22 23 28 31 27 19 20 23 27 29 28 29 23 14 12 11 11 10 8 8 8 8 8 9 10 10 9 8 7 6 4 2 2 0 2 4
27 31 36 43 35 33 27 36 26 21 20 21 21 17 21 27 29 30 30 29 26 18 7 7 9 7 8 7 7 6 6 6 8 9 8 8 7 5 4 3 2 1 1 3
11 12 21 23 23 18 15 25 18 11 14 15 22 24 27 27 28 29 28 30 24 21 4 4 6 7 8 6 6 6 5 4 5 6 6 5 6 6 5 3 2 1 1 3
20 11 8 22 28 18 16 17 24 11 11 16 22 22 24 24 27 30 25 25 19 13 4 1 4 6 6 5 6 5 4 3 4 4 4 5 5 6 4 4 2 1 2 4
26 26 26 18 20 19 14 24 23 23 20 16 15 18 23 26 29 29 24 13 12 8 3 3 5 6 5 6 5 6 5 4 4 3 4 5 5 5 4 4 2 2 2 5
25 22 15 10 15 11 11 17 21 19 19 15 16 19 23 25 27 29 28 8 5 4 3 3 6 6 6 5 6 6 5 3 2 3 3 4 5 5 5 5 4 4 6 7
32 31 18 13 15 17 16 19 19 19 22 15 17 18 21 19 24 26 24 7 1 1 2 3 4 4 6 7 6 5 5 4 4 5 4 4 3 4 5 5 6 7 8 9
20 28 27 22 26 24 24 25 23 22 22 22 20 20 21 20 22 26 21 14 3 2 1 4 5 6 8 7 7 7 6 6 6 4 6 5 4 3 4 5 5 7 8 6
25 25 24 25 23 22 20 21 21 20 25 20 21 27 20 20 23 28 24 16 12 3 2 4 5 8 10 10 9 7 8 8 9 6 5 5 4 3 1 2 3 3 3 3
32 32 30 30 24 23 22 21 22 25 23 26 25 26 16 23 28 28 15 9 8 5 5 5 5 7 8 11 11 10 10 9 9 9 8 4 3 2 1 7 7 3 2 2
27 31 34 33 36 26 23 23 23 18 24 25 26 16 15 19 22 17 2 9 4 8 6 5 5 6 8 10 12 13 11 10 10 9 8 6 4 1 1 1 3 5 4 3
35 36 38 40 36 30 24 23 22 21 24 27 16 12 13 14 14 7 3 2 2 3 5 6 4 6 8 9 10 11 11 11 10 9 8 6 5 3 1 2 3 3 5 7
36 36 38 35 34 30 25 23 25 19 24 24 16 13 10 11 9 9 7 2 5 3 3 3 3 5 8 8 8 8 8 11 10 9 7 5 3 2 1 1 2 3 4 5
35 35 31 30 28 24 23 22 19 19 22 24 21 10 9 7 9 7 6 2 4 3 3 3 4 5 5 5 5 5 7 8 8 7 6 4 2 1 1 1 3 4 5 3
28 25 26 27 26 23 20 19 21 23 25 25 20 14 10 5 6 5 3 2 3 3 3 5 6 6 5 5 4 4 5 5 5 5 5 3 2 1 1 2 3 4 6 5
28 27 26 25 25 23 22 22 22 22 22 21 17 15 10 5 4 3 2 2 3 1 2 3 8 6 6 6 5 4 4 4 3 3 3 2 1 1 1 2 4 5 6 7
27 27 26 24 24 22 22 21 20 19 17 15 13 10 8 7 6 5 4 4 4 3 2 1 3 2 3 4 4 4 3 3 3 3 3 3 2 2 2 3 5 7 8 9
28 27 26 25 24 22 21 20 19 18 17 15 14 11 9 8 8 6 4 3 4 2 1 2 1 2 2 3 3 3 4 3 3 3 3 2 3 3 4 6 8 9 10 11
27 27 26 25 24 22 21 19 17 17 16 15 14 13 11 10 9 9 8 6 5 5 4 3 2 2 2 3 3 3 3 4 3 3 3 3 4 6 8 8 10 11 12 11
27 27 26 25 24 22 21 19 17 14 13 13 12 11 9 8 8 8 7 7 6 7 7 7 6 6 7 4 4 4 3 4 4 4 4 5 6 7 9 9 10 11 11 12
27 28 27 25 23 22 21 18 16 15 13 12 11 9 8 7 7 8 8 6 6 6 6 6 7 7 6 4 3 4 4 4 5 6 7 8 8 9 10 10 11 11 11 11
29 29 27 26 25 23 19 17 15 14 14 12 11 10 8 8 7 6 6 6 6 6 6 6 7 6 5 4 3 4 5 6 6 7 8 9 10 11 11 10 11 11 12 12
30 29 28 27 27 21 17 15 14 12 11 10 10 10 9 8 8 7 6 6 6 7 6 6 6 5 5 5 5 5 6 7 8 9 9 10 10 11 11 11 12 12 12 12
30 29 28 27 26 24 18 11 11 9 9 7 7 8 8 7 6 6 6 6 6 6 6 6 6 6 6 6 6 6 7 8 8 9 10 10 11 11 11 12 12 12 12 13
Wind_Direction
293 293 295 293 292 291 288 288 285 285 290 270 281 283 283 293 291 288 296 282 275 269 257 245 246 254 245 236 231 241 228 232 244 254 256 279 306 327 339 345 349 6 16 33
290 290 290 294 295 296 290 286 287 287 282 282 284 286 287 291 295 292 294 285 272 259 251 242 244 252 244 237 236 237 241 244 249 255 258 264 287 313 332 346 6 18 25 53
304 301 297 296 267 299 292 288 295 292 289 291 287 291 300 302 301 299 305 309 278 250 239 239 237 237 231 229 222 227 248 248 247 251 252 252 274 293 317 338 40 28 53 56
295 300 298 297 311 316 304 278 307 305 301 296 302 313 316 321 314 306 310 306 299 273 247 241 240 244 228 215 224 232 249 243 240 238 246 253 261 276 285 272 261 78 41 57
293 290 291 264 293 298 304 284 304 305 314 310 309 317 319 317 314 309 304 304 302 308 251 238 216 218 208 213 217 224 235 230 227 229 235 242 250 248 267 257 231 287 104 36
277 292 301 309 313 324 329 312 326 321 316 320 308 311 310 327 314 313 308 296 295 297 286 228 214 193 190 185 189 200 206 196 195 203 219 226 250 257 249 242 237 267 255 329
234 268 273 305 300 321 319 322 318 355 349 334 325 328 322 324 322 312 317 304 298 298 323 212 166 164 178 183 185 184 174 167 179 192 223 246 238 243 240 256 273 280 286 317
292 284 284 297 323 323 338 305 317 279 323 346 350 344 328 323 315 305 299 327 327 326 22 83 120 135 141 150 146 144 149 164 186 216 246 237 217 236 240 211 212 252 288 301
293 303 326 352 339 360 4 340 313 327 337 336 330 331 335 324 311 299 277 319 345 10 25 68 109 119 118 118 129 136 141 154 185 192 205 230 221 233 229 220 227 258 277 283
277 284 307 336 338 343 350 339 340 335 329 331 324 327 326 332 318 299 287 284 241 21 347 90 97 101 113 111 109 121 130 137 144 144 148 168 208 208 213 236 252 267 276 280
313 259 288 310 315 328 333 336 337 334 327 323 323 324 321 323 322 292 299 273 204 149 119 84 112 104 114 108 107 113 111 113 137 150 149 150 165 189 235 256 259 272 274 276
298 318 325 325 328 336 338 342 341 336 318 321 322 303 321 318 313 289 287 260 249 208 121 113 88 108 115 113 112 112 118 123 126 129 141 140 144 304 200 225 270 274 263 258
306 312 317 320 329 332 328 331 331 323 317 311 314 304 327 309 303 289 284 156 158 163 140 121 110 112 114 117 119 122 122 123 125 128 132 136 144 149 316 317 315 210 230 238
326 322 319 324 319 328 327 325 322 327 313 305 300 326 331 322 331 309 262 133 146 132 128 124 117 121 120 119 122 123 120 122 126 131 132 128 139 168 205 284 320 327 325 312
314 319 321 319 316 317 320 316 310 307 300 293 322 334 332 332 357 9 322 102 197 136 115 126 123 126 120 124 122 124 119 120 125 129 133 135 136 141 186 287 308 316 318 316
323 328 329 322 311 302 309 310 300 303 292 298 320 328 341 327 336 1 106 140 122 111 103 105 104 122 127 125 123 122 120 124 123 125 128 130 132 149 165 289 312 313 311 306
330 324 315 320 321 323 317 311 317 313 303 298 300 323 325 329 319 319 309 100 99 92 95 103 108 105 107 110 114 111 116 121 121 116 120 119 115 124 160 286 317 320 324 325
338 319 322 334 313 318 333 325 316 309 300 286 298 310 314 311 325 331 316 74 58 34 66 100 103 104 105 106 109 110 111 116 115 114 108 107 114 352 332 314 321 325 328 325
328 326 322 327 329 337 340 330 323 317 308 303 303 307 323 335 4 18 38 20 9 62 10 77 112 105 103 104 102 98 105 109 101 97 94 82 54 7 341 329 323 324 328 326
325 325 324 320 333 336 339 342 343 340 336 340 339 340 345 350 351 356 348 333 320 326 303 9 106 99 96 95 83 77 91 100 91 88 84 82 73 34 355 336 329 326 326 325
326 331 336 343 344 346 347 346 352 353 353 356 354 358 5 2 8 16 15 17 356 15 75 118 94 83 86 86 67 65 76 93 93 89 70 32 16 3 345 335 331 329 328 327
322 328 336 336 345 346 344 346 351 356 357 1 10 16 22 28 33 30 20 57 63 75 98 101 82 114 101 90 63 73 66 73 68 27 11 0 353 344 337 334 332 333 335 336
321 324 328 329 335 344 344 346 354 4 4 4 5 12 17 25 42 50 41 38 64 79 91 99 102 113 121 93 63 75 60 39 27 14 6 355 346 342 341 341 342 342 343 344
322 322 321 326 325 332 336 350 359 2 4 7 8 13 24 34 11 2 13 61 73 84 90 95 99 102 109 104 49 41 35 24 16 8 360 356 352 349 346 346 347 349 350 349
325 319 319 316 316 320 333 341 351 356 359 7 15 17 26 19 23 32 48 61 79 83 82 89 96 91 69 63 54 34 25 20 14 10 4 359 355 353 355 355 353 351 349 348
325 326 323 318 315 327 332 337 338 350 359 4 8 6 6 11 28 39 46 62 69 79 78 84 83 68 61 59 51 37 25 20 15 10 8 6 6 4 1 358 356 352 352 352
322 324 323 325 324 319 329 341 336 342 351 357 359 357 360 13 30 37 51 61 64 66 69 68 68 66 63 53 41 28 20 16 16 16 15 14 12 9 4 1 358 357 356 354